C/2021 K3 ( Catalina )

Japanese version
Home page
Updated on November 15, 2021

---------------------------------------------------------------------

* Profile

Discovery Date May 20, 2021
Magnitude 21.9 mag
Discoverer Catalina Sky Survey

* Orbital Elements

Epoch 2022 Jan. 21.0 TT = JDT 2459600.5
T 2022 Feb. 2.66986 TT                                  Rudenko
q   5.2298457            (2000.0)            P               Q
z  -0.0006372      Peri.  181.99333     +0.39136072     -0.65519298
 +/-0.0000375      Node   114.45092     -0.83417587     +0.04392015
e   1.0033323      Incl.  134.77728     -0.38857097     -0.75418379
From 24 observations 2021 July 6-Oct. 8, mean residual 0".4.

* Magnitudes Graph

        m1 = 10.0 + 5 log d + 10.0 log r

---------------------------------------------------------------------

The orbital elements are published on M.P.E.C. 2021-U31.
The magnitudes graphs are made with Comet for Windows.

---------------------------------------------------------------------

Copyright(C) Seiichi Yoshida (comet@aerith.net). All rights reserved.